Weather History for Ponca City, OK

Change the Weather History Date:

Tuesday, January 3, 2012

  Actual Average Record
Temperature  
Mean Temperature 40 °F -  
Max Temperature 59 °F 40 °F 77 °F (1997)
Min Temperature 21 °F 20 °F 1 °F (2002)
Degree Days  
Heating Degree Days 25    
Moisture  
Dew Point 20 °F    
Average Humidity 47    
Maximum Humidity 78    
Minimum Humidity 25    
Precipitation  
Precipitation 0.00 in - - ()
Sea Level Pressure  
Sea Level Pressure 30.28 in    
Wind  
Wind Speed 8 mph (South)    
Max Wind Speed 16 mph    
Max Gust Speed 25 mph    
Visibility 10 miles    
Events      
Averages and records for this station are not official NWS values.
T = Trace of Precipitation, MM = Missing Value Source: NWS Daily Summary

Daily Weather History Graph

Daily Weather History Graph

Search for Another Location

Airport:

Trip Planner

Search our weather history database for the weather conditions in past years. The results will help you decide how hot, cold, wet, or windy it might be!

Date:

Astronomy

Jan. 03, 2012 Rise Set
Actual Time 7:41 AM CST 5:24 PM CST
Civil Twilight 7:12 AM CST 5:53 PM CST
Nautical Twilight 6:40 AM CST 6:25 PM CST
Astronomical Twilight 6:08 AM CST 6:56 PM CST
Moon 1:10 PM CST (1/3) 2:35 AM CST (1/3)
Length of Visible Light 10h 40m
Length of Day
9h 43m
Waxing Gibbous, 73% of the Moon is Illuminated
Jan 3
Waxing Gibbous
Jan 9
Full
Jan 16
Last Quarter
Jan 23
New
Jan 30
First Quarter

Hourly Weather History & Observations

Time (CST) Temp. Windchill Dew Point Humidity Pressure Visibility Wind Dir Wind Speed Gust Speed Precip Events Conditions
12:53 AM 21.9 °F - 16.0 °F 78% 30.53 in 10.0 mi Calm Calm - N/A   Clear
1:53 AM 25.0 °F 18.1 °F 15.1 °F 66% 30.51 in 10.0 mi SE 5.8 mph - N/A   Clear
2:53 AM 25.0 °F 17.1 °F 16.0 °F 69% 30.51 in 10.0 mi SSE 6.9 mph - N/A   Clear
3:53 AM 26.1 °F 19.4 °F 16.0 °F 66% 30.49 in 10.0 mi SE 5.8 mph - N/A   Clear
4:53 AM 26.1 °F 16.8 °F 16.0 °F 66% 30.47 in 10.0 mi SSE 9.2 mph - N/A   Clear
5:53 AM 28.0 °F 18.6 °F 16.0 °F 61% 30.44 in 10.0 mi SSE 10.4 mph - N/A   Clear
6:53 AM 28.0 °F 18.6 °F 16.0 °F 61% 30.43 in 10.0 mi SE 10.4 mph - N/A   Clear
8:53 AM 34.0 °F 23.8 °F 16.0 °F 48% 30.39 in 10.0 mi SSE 16.1 mph - N/A   Clear
9:53 AM 39.0 °F 31.4 °F 19.0 °F 45% 30.40 in 10.0 mi South 12.7 mph 23.0 mph N/A   Clear
10:53 AM 43.0 °F 37.2 °F 19.9 °F 40% 30.34 in 10.0 mi South 10.4 mph 18.4 mph N/A   Clear
11:53 AM 48.9 °F - 21.9 °F 35% 30.27 in 10.0 mi South 11.5 mph 23.0 mph N/A   Clear
12:53 PM 53.1 °F - 23.0 °F 31% 30.21 in 10.0 mi South 16.1 mph 21.9 mph N/A   Clear
1:53 PM 57.0 °F - 21.9 °F 26% 30.16 in 10.0 mi SSW 15.0 mph 25.3 mph N/A   Clear
2:53 PM 57.9 °F - 21.9 °F 25% 30.13 in 10.0 mi South 13.8 mph 24.2 mph N/A   Clear
3:53 PM 59.0 °F - 23.0 °F 25% 30.09 in 10.0 mi SSW 12.7 mph 19.6 mph N/A   Clear
4:53 PM 55.9 °F - 23.0 °F 28% 30.09 in 10.0 mi South 6.9 mph - N/A   Clear
5:53 PM 52.0 °F - 24.1 °F 34% 30.12 in 10.0 mi South 4.6 mph - N/A   Clear
6:53 PM 48.9 °F - 25.0 °F 39% 30.12 in 10.0 mi South 8.1 mph - N/A   Clear
7:53 PM 48.0 °F - 25.0 °F 41% 30.11 in 10.0 mi South 8.1 mph - N/A   Clear
8:53 PM 46.0 °F 41.4 °F 25.0 °F 44% 30.11 in 10.0 mi South 9.2 mph - N/A   Clear
9:53 PM 44.1 °F 40.1 °F 26.1 °F 49% 30.10 in 10.0 mi South 6.9 mph - N/A   Clear
11:53 PM 37.0 °F - 25.0 °F 62% 30.13 in 10.0 mi Calm Calm - N/A   Clear